Miscellaneous Local Product
Issued by NWS Hastings, NE

Home | Current Version | Previous Version | Graphics & Text | Print | Product List | Glossary On
Versions: 1 2 3 4 5 6 7 8 9 10 11 12 13 14 15 16 17 18 19 20 21 22 23 24 25 26 27 28 29 30 31 32 33 34 35 36 37 38 39 40 41 42 43 44 45 46 47 48 49 50
000
AXUS43 KGID 211102
MISGRI

GID CWA HOURLY WEATHER ROUNDUP
NATIONAL WEATHER SERVICE HASTINGS NE
600 AM CDT MON APR 21 2014

NOTE: "FAIR" INDICATES FEW OR NO CLOUDS BELOW 12,000 FEET WITH NO
SIGNIFICANT WEATHER AND/OR OBSTRUCTIONS TO VISIBILITY.

...SOUTH CENTRAL NEBRASKA...

CITY           SKY/WX    TMP DP  RH WIND       PRES   REMARKS
GRAND ISLAND   CLOUDY    58  53  84 N9        30.01R
HASTINGS       CLOUDY    59  50  72 N20G25    29.99R
KEARNEY        CLOUDY    55  50  82 NW13      30.02R
ORD            MOCLDY    49  38  65 NW10      30.03R
YORK           CLOUDY    57  55  94 W3        29.99F
AURORA         CLOUDY    56  55  94 W6        29.97S
LEXINGTON      CLEAR     50  39  65 N9        30.06R
HOLDREGE       MOCLDY    52  50  93 NW12G17   30.02R
HEBRON         LGT RAIN  59  54  84 W10       29.97R

...NEBRASKA PANHANDLE...

CITY           SKY/WX    TMP DP  RH WIND       PRES   REMARKS
CHADRON        CLEAR     34  30  85 W9        30.23R WCI  27
ALLIANCE       MOCLDY    39  28  64 NW7       30.21R WCI  34
SCOTTSBLUFF    CLEAR     44  25  47 W5        30.24S
SIDNEY         CLEAR     43  27  53 N12       30.21R

...WESTERN AND NORTH CENTRAL NEBRASKA...

CITY           SKY/WX    TMP DP  RH WIND       PRES   REMARKS
VALENTINE      CLEAR     43  27  53 W7        30.15R
AINSWORTH      CLEAR     46  31  56 NW6       30.13R
ONEILL         PTCLDY    52  30  43 N16       30.06R
BROKEN BOW     CLEAR     49  35  58 N21       30.06R
IMPERIAL       CLEAR     46  32  58 NW10      30.14R
NORTH PLATTE   CLEAR     51  29  42 N17G26    30.09R
MCCOOK         CLEAR     52  36  54 N16       30.06R

...EASTERN NEBRASKA...

CITY           SKY/WX    TMP DP  RH WIND       PRES   REMARKS
NORFOLK        CLOUDY    59  46  62 NW12      29.97R
SO SIOUX CITY  MOCLDY    56  54  93 CALM      29.92R
TEKAMAH        CLOUDY    60  56  86 SE7       29.93R
COLUMBUS       CLOUDY    59  48  67 W8        29.98S
ALBION         CLOUDY    57  40  52 N13       30.00R
OMAHA EPPLEY   CLOUDY    60  57  89 SE7       29.91F FOG
OFFUTT AFB     CLOUDY    58  58 100 CALM      29.92F
MILLARD        CLOUDY    60  56  85 CALM      29.92S
LINCOLN        CLOUDY    60  56  86 W3        29.95R
NEBRASKA CITY  MOCLDY    59  58  98 SW8       29.94S
BEATRICE       CLOUDY    58  55  91 S3        29.95S
FALLS CITY     PTCLDY    58  55  90 CALM      29.95R

...NORTHERN KANSAS...

CITY           SKY/WX    TMP DP  RH WIND       PRES   REMARKS
GOODLAND       CLEAR     48  41  76 N17       30.11R
HILL CITY      PTCLDY    53  51  93 CALM      30.01R
SMITH CENTER   LGT RAIN  54  52  94 E5        30.00F
BELOIT         CLOUDY    57  57 100 NW6       30.00F
HAYS           CLOUDY    55  52  88 N16       30.03R
RUSSELL        LGT RAIN  54  52  93 N12       30.00R
CONCORDIA      LGT RAIN  58  57  97 NW5       30.00S
SALINA         CLOUDY    53  50  89 S5        29.98R
TOPEKA         CLOUDY    62  56  80 S6        29.97S



USA.gov is the U.S. government's official web portal to all federal, state and local government web resources and services.